Tracking 28908 objects as of 21-May-2024
HD Live streaming from Space Station
objects crossing your sky now

OSCAR 14 (UOSAT 3)

Track OSCAR 14 (UOSAT 3) now!
10-day predictions
OSCAR 14 (UOSAT 3) is classified as:


NORAD ID: 20437
Int'l Code: 1990-005B
Perigee: 782.5 km
Apogee: 796.6 km
Inclination: 98.9 °
Period: 100.5 minutes
Semi major axis: 7160 km
RCS: 0.3858 m2 (medium)
Launch date: January 22, 1990
Source: United Kingdom (UK)
Launch site: FRENCH GUIANA (FRGUI)

Uplink (MHz): 145.975
Downlink (MHz): 435.070
Beacon (MHz):
Mode: FM
Call sign:
Status: Inactive

Your satellite tracking list
Your tracking list is empty




NASA's NSSDC Master Catalog

Two Line Element Set (TLE):
1 20437U 90005B   24141.60851356  .00000455  00000-0  18402-3 0  9998
2 20437  98.8921 163.1402 0009854 329.6631 141.6997 14.32795332793081
Source of the keplerian elements: AFSPC